GFSMA_prec_pwat_060.txt.gz
Precipitable_Water
2.00 1.95 1.87 1.93 1.82 1.87 1.67 1.55 1.54 1.68 1.83 1.77 1.63 1.62 1.63 1.71 1.69 1.52 1.21 1.24 1.30 1.48 1.55 1.32 1.33 1.36 1.35 1.27 1.34 1.33 1.34 1.36 1.35 1.35 1.34 1.37 1.44 1.49 1.46 1.43 1.45 1.49 1.48
1.70 1.72 1.76 1.79 1.86 1.75 1.73 1.60 1.51 1.60 1.72 1.71 1.72 1.73 1.68 1.62 1.74 1.57 1.47 1.25 1.22 1.25 1.30 1.27 1.27 1.30 1.32 1.34 1.36 1.38 1.30 1.29 1.34 1.34 1.33 1.41 1.46 1.46 1.47 1.48 1.49 1.54 1.50
1.78 1.63 1.97 1.76 1.65 1.90 1.65 1.45 1.30 1.51 1.48 1.54 1.67 1.74 1.66 1.69 1.76 1.84 1.80 1.79 1.71 1.60 1.57 1.49 1.40 1.36 1.39 1.41 1.38 1.42 1.39 1.38 1.36 1.38 1.41 1.44 1.41 1.41 1.41 1.42 1.40 1.33 1.26
1.98 2.03 1.69 1.87 1.81 1.72 1.56 1.43 1.38 1.45 1.52 1.38 1.49 1.68 1.66 1.57 1.64 1.69 1.71 1.74 1.71 1.72 1.68 1.50 1.42 1.43 1.43 1.50 1.47 1.46 1.45 1.46 1.42 1.38 1.37 1.35 1.32 1.32 1.30 1.27 1.22 1.15 1.11
1.89 1.91 1.80 1.75 1.79 1.79 1.60 1.49 1.36 1.31 1.23 1.39 1.39 1.38 1.43 1.48 1.57 1.46 1.44 1.49 1.44 1.43 1.47 1.46 1.45 1.44 1.34 1.32 1.32 1.32 1.29 1.29 1.29 1.28 1.26 1.24 1.25 1.26 1.26 1.25 1.22 1.21 1.12
1.83 1.91 1.82 1.58 1.79 1.79 1.52 1.54 1.42 1.35 1.46 1.36 1.45 1.34 1.33 1.39 1.41 1.34 1.32 1.42 1.31 1.40 1.40 1.28 1.36 1.44 1.35 1.20 1.14 1.13 1.18 1.20 1.23 1.23 1.23 1.23 1.20 1.22 1.26 1.26 1.22 1.17 1.14
1.85 1.93 1.79 1.59 1.82 1.68 1.61 1.44 1.34 1.27 1.43 1.37 1.29 1.13 1.30 1.21 1.29 1.37 1.40 1.32 1.27 1.44 1.42 1.38 1.43 1.46 1.39 1.30 1.10 0.98 1.02 1.10 1.15 1.14 1.16 1.14 1.15 1.21 1.24 1.22 1.18 1.18 1.24
1.81 1.80 1.77 1.56 1.73 1.72 1.39 1.46 1.46 1.31 1.29 1.25 1.17 1.32 1.15 1.10 1.35 1.37 1.30 1.30 1.34 1.41 1.34 1.29 1.27 1.29 1.37 1.37 1.28 0.98 0.96 1.05 1.10 1.11 1.12 1.13 1.19 1.21 1.19 1.16 1.16 1.20 1.25
1.64 1.80 1.79 1.77 1.66 1.71 1.49 1.44 1.62 1.54 1.22 1.22 1.25 1.27 1.12 1.06 1.21 1.24 1.19 1.33 1.28 1.36 1.40 1.32 1.32 1.24 1.21 1.42 1.39 1.25 1.09 1.05 1.11 1.15 1.15 1.14 1.17 1.18 1.17 1.19 1.23 1.25 1.28
1.66 1.76 1.73 1.85 1.78 1.81 1.64 1.40 1.45 1.57 1.49 1.16 1.22 1.34 1.40 1.33 1.10 1.03 1.27 1.27 1.21 1.24 1.31 1.38 1.40 1.35 1.40 1.37 1.41 1.34 1.19 1.11 1.18 1.19 1.18 1.18 1.20 1.20 1.21 1.23 1.27 1.30 1.31
1.64 1.72 1.69 1.72 1.77 1.77 1.74 1.61 1.46 1.58 1.67 1.51 1.32 1.18 1.27 1.27 1.31 1.20 1.06 1.12 1.26 1.24 1.33 1.27 1.42 1.40 1.42 1.42 1.45 1.46 1.39 1.30 1.29 1.30 1.30 1.27 1.23 1.21 1.22 1.25 1.28 1.31 1.32
1.57 1.73 1.81 1.68 1.69 1.65 1.70 1.69 1.60 1.41 1.47 1.53 1.60 1.33 1.19 1.18 1.18 1.15 1.15 1.09 1.12 1.18 1.29 1.37 1.34 1.35 1.46 1.45 1.44 1.44 1.40 1.34 1.31 1.30 1.32 1.37 1.34 1.32 1.31 1.32 1.33 1.33 1.34
1.51 1.48 1.58 1.66 1.61 1.61 1.75 1.73 1.64 1.49 1.37 1.45 1.43 1.38 1.49 1.52 1.36 1.32 1.28 1.23 1.15 1.24 1.28 1.38 1.39 1.38 1.37 1.41 1.41 1.41 1.41 1.39 1.37 1.35 1.34 1.34 1.35 1.36 1.37 1.37 1.37 1.38 1.40
1.57 1.64 1.62 1.57 1.42 1.64 1.58 1.75 1.57 1.53 1.38 1.27 1.27 1.34 1.36 1.42 1.33 1.24 1.25 1.25 1.15 1.27 1.34 1.35 1.42 1.40 1.40 1.39 1.39 1.43 1.42 1.40 1.38 1.38 1.37 1.37 1.37 1.37 1.37 1.37 1.37 1.39 1.42
1.55 1.61 1.62 1.58 1.46 1.45 1.56 1.56 1.50 1.60 1.82 1.53 1.25 1.20 1.20 1.24 1.39 1.26 1.29 1.30 1.24 1.12 1.20 1.36 1.25 1.39 1.39 1.37 1.43 1.44 1.44 1.44 1.42 1.41 1.44 1.43 1.45 1.45 1.42 1.41 1.40 1.38 1.38
1.39 1.75 1.60 1.50 1.37 1.37 1.41 1.51 1.43 1.49 1.57 1.60 1.42 1.37 1.22 1.17 1.39 1.47 1.36 1.35 1.32 1.20 1.08 1.27 1.31 1.38 1.41 1.39 1.41 1.43 1.46 1.47 1.52 1.54 1.53 1.55 1.63 1.69 1.72 1.71 1.61 1.55 1.49
1.42 1.42 1.56 1.48 1.38 1.27 1.36 1.37 1.33 1.51 1.48 1.48 1.53 1.54 1.38 1.37 1.34 1.49 1.53 1.40 1.28 1.27 1.10 1.14 1.29 1.32 1.32 1.30 1.34 1.42 1.48 1.51 1.56 1.61 1.64 1.75 1.81 1.80 1.84 1.78 1.72 1.68 1.68
1.39 1.40 1.39 1.43 1.31 1.29 1.27 1.26 1.27 1.29 1.44 1.44 1.41 1.44 1.48 1.51 1.37 1.34 1.42 1.41 1.43 1.42 1.25 1.06 1.13 1.10 1.21 1.35 1.43 1.49 1.55 1.59 1.64 1.74 1.76 1.85 1.80 1.81 1.84 1.81 1.66 1.64 1.62
1.32 1.33 1.33 1.24 1.29 1.26 1.22 1.19 1.24 1.25 1.29 1.42 1.44 1.38 1.39 1.38 1.33 1.38 1.33 1.29 1.26 1.32 1.36 1.25 1.20 1.37 1.34 1.43 1.44 1.51 1.56 1.63 1.79 1.78 1.74 1.74 1.79 1.78 1.87 1.82 1.65 1.64 1.63
1.18 1.26 1.27 1.30 1.29 1.28 1.22 1.17 1.23 1.27 1.23 1.25 1.36 1.32 1.36 1.38 1.35 1.36 1.32 1.26 1.30 1.24 1.23 1.19 1.14 1.19 1.38 1.44 1.49 1.45 1.44 1.54 1.51 1.73 1.70 1.60 1.79 1.98 2.05 1.93 1.69 1.65 1.61
1.23 1.24 1.23 1.27 1.32 1.32 1.25 1.19 1.19 1.25 1.27 1.20 1.24 1.32 1.33 1.37 1.37 1.40 1.36 1.31 1.31 1.29 1.29 1.27 1.29 1.39 1.32 1.15 1.11 1.26 1.31 1.47 1.47 1.49 1.53 1.87 1.96 1.96 1.99 1.79 1.64 1.59 1.62
1.21 1.23 1.22 1.22 1.25 1.29 1.27 1.27 1.24 1.20 1.27 1.25 1.18 1.24 1.35 1.35 1.30 1.28 1.31 1.38 1.34 1.21 1.20 1.21 1.18 1.09 1.02 1.09 1.25 1.28 1.29 1.22 1.18 1.69 1.75 1.73 1.96 1.88 1.96 1.74 1.66 1.77 1.69
1.37 1.24 1.19 1.20 1.20 1.25 1.27 1.27 1.26 1.25 1.21 1.24 1.24 1.23 1.22 1.25 1.27 1.24 1.24 1.25 1.24 1.24 1.23 1.17 1.07 1.04 1.13 1.25 1.35 1.29 1.29 1.34 1.37 1.75 1.92 1.68 1.93 1.83 1.87 1.71 1.62 1.46 1.37
1.37 1.33 1.25 1.19 1.17 1.20 1.25 1.24 1.26 1.27 1.23 1.22 1.20 1.16 1.19 1.14 1.15 1.26 1.27 1.23 1.21 1.23 1.26 1.31 1.34 1.40 1.45 1.45 1.43 1.42 1.46 1.56 1.71 1.84 2.03 1.66 1.89 1.66 1.63 1.44 1.33 1.37 1.39
1.35 1.31 1.29 1.21 1.15 1.16 1.24 1.24 1.25 1.22 1.20 1.17 1.18 1.19 1.21 1.19 1.11 1.03 0.98 1.03 1.11 1.23 1.43 1.47 1.52 1.51 1.49 1.53 1.54 1.50 1.45 1.57 1.54 1.71 2.00 1.83 1.81 1.50 1.27 1.24 1.41 1.35 1.25
1.33 1.32 1.25 1.27 1.28 1.22 1.28 1.28 1.27 1.24 1.14 1.14 1.18 1.16 1.13 1.05 1.05 1.14 1.11 1.04 1.06 1.09 1.16 1.25 1.34 1.37 1.45 1.47 1.58 1.79 1.84 1.65 1.66 1.61 1.88 1.78 1.57 1.27 1.06 1.38 1.27 1.26 1.30

GFSMA_prec_pwat_063.txt.gz
Precipitable_Water
1.84 1.90 1.92 1.81 1.81 1.82 1.63 1.63 1.69 1.77 1.77 1.72 1.75 1.79 1.68 1.64 1.57 1.33 1.18 1.21 1.32 1.40 1.38 1.37 1.34 1.36 1.32 1.30 1.35 1.31 1.34 1.37 1.33 1.31 1.30 1.35 1.42 1.44 1.44 1.47 1.46 1.51 1.46
1.82 1.83 1.70 1.97 1.82 1.69 1.65 1.46 1.62 1.68 1.67 1.71 1.62 1.79 1.68 1.61 1.53 1.45 1.39 1.35 1.33 1.34 1.36 1.29 1.32 1.32 1.31 1.29 1.33 1.32 1.24 1.22 1.23 1.26 1.27 1.34 1.37 1.37 1.37 1.41 1.40 1.35 1.28
1.59 1.86 1.73 1.65 1.84 1.71 1.65 1.44 1.49 1.65 1.54 1.67 1.70 1.63 1.65 1.62 1.64 1.69 1.64 1.69 1.63 1.63 1.59 1.46 1.43 1.36 1.34 1.33 1.30 1.33 1.35 1.34 1.31 1.30 1.32 1.33 1.33 1.39 1.43 1.44 1.39 1.32 1.26
1.88 1.73 1.75 1.73 1.69 1.63 1.50 1.37 1.60 1.50 1.46 1.51 1.57 1.65 1.64 1.59 1.57 1.56 1.55 1.47 1.46 1.47 1.52 1.42 1.40 1.34 1.34 1.36 1.37 1.36 1.33 1.32 1.28 1.31 1.37 1.40 1.39 1.40 1.38 1.35 1.34 1.28 1.19
1.87 1.75 1.89 1.71 1.71 1.59 1.47 1.44 1.50 1.53 1.41 1.38 1.34 1.45 1.39 1.49 1.44 1.42 1.40 1.44 1.35 1.37 1.37 1.34 1.39 1.37 1.26 1.18 1.16 1.18 1.24 1.27 1.32 1.35 1.37 1.36 1.37 1.35 1.34 1.34 1.31 1.26 1.14
1.83 1.83 1.70 1.67 1.81 1.60 1.50 1.40 1.33 1.39 1.39 1.42 1.35 1.33 1.27 1.33 1.37 1.34 1.41 1.41 1.39 1.46 1.41 1.30 1.34 1.39 1.31 1.20 1.09 1.13 1.22 1.26 1.27 1.28 1.28 1.28 1.27 1.27 1.30 1.29 1.26 1.20 1.19
1.81 1.78 1.64 1.66 1.77 1.61 1.38 1.51 1.41 1.36 1.38 1.45 1.22 1.31 1.29 1.38 1.35 1.33 1.37 1.39 1.41 1.44 1.42 1.38 1.32 1.31 1.28 1.25 1.20 1.08 1.08 1.13 1.19 1.23 1.23 1.22 1.23 1.26 1.29 1.27 1.24 1.19 1.23
1.78 1.81 1.56 1.62 1.77 1.66 1.43 1.40 1.35 1.32 1.33 1.35 1.13 1.21 1.03 1.10 1.27 1.32 1.31 1.27 1.30 1.36 1.35 1.37 1.36 1.22 1.24 1.26 1.30 1.14 1.06 1.11 1.16 1.19 1.22 1.23 1.22 1.25 1.25 1.25 1.22 1.22 1.24
1.64 1.70 1.69 1.62 1.60 1.54 1.33 1.39 1.41 1.36 1.16 1.25 1.25 1.27 1.05 0.96 1.14 1.24 1.24 1.26 1.25 1.23 1.33 1.36 1.37 1.35 1.36 1.31 1.35 1.33 1.19 1.13 1.15 1.22 1.23 1.20 1.20 1.23 1.21 1.20 1.20 1.23 1.26
1.52 1.70 1.75 1.79 1.73 1.60 1.47 1.38 1.46 1.42 1.35 1.17 1.23 1.35 1.35 1.25 1.02 0.86 1.16 1.30 1.31 1.24 1.33 1.31 1.34 1.41 1.39 1.37 1.42 1.44 1.41 1.27 1.24 1.26 1.26 1.25 1.23 1.23 1.23 1.20 1.20 1.23 1.26
1.56 1.53 1.68 1.77 1.66 1.70 1.65 1.52 1.45 1.55 1.52 1.34 1.27 1.27 1.26 1.21 1.30 1.09 1.00 1.13 1.28 1.26 1.32 1.32 1.32 1.37 1.41 1.46 1.45 1.41 1.43 1.40 1.33 1.32 1.31 1.31 1.29 1.29 1.27 1.26 1.26 1.26 1.27
1.61 1.53 1.58 1.60 1.58 1.65 1.68 1.57 1.53 1.50 1.47 1.46 1.47 1.41 1.27 1.19 1.12 1.16 1.11 1.11 1.13 1.19 1.33 1.37 1.36 1.37 1.37 1.39 1.41 1.42 1.45 1.45 1.42 1.40 1.36 1.35 1.36 1.36 1.34 1.36 1.35 1.34 1.32
1.54 1.56 1.62 1.63 1.58 1.55 1.67 1.64 1.57 1.44 1.43 1.42 1.48 1.37 1.42 1.37 1.27 1.32 1.22 1.17 1.17 1.25 1.31 1.46 1.40 1.35 1.38 1.38 1.41 1.44 1.45 1.48 1.44 1.40 1.37 1.38 1.41 1.42 1.45 1.47 1.44 1.43 1.43
1.35 1.49 1.53 1.61 1.52 1.50 1.58 1.61 1.56 1.44 1.37 1.42 1.43 1.45 1.39 1.45 1.35 1.27 1.23 1.15 1.09 1.19 1.30 1.26 1.40 1.35 1.38 1.41 1.43 1.46 1.48 1.49 1.42 1.45 1.49 1.52 1.57 1.64 1.74 1.73 1.66 1.59 1.54
1.43 1.48 1.51 1.49 1.48 1.43 1.40 1.44 1.49 1.48 1.46 1.27 1.27 1.29 1.34 1.33 1.38 1.39 1.30 1.24 1.18 1.03 1.08 1.28 1.24 1.45 1.42 1.46 1.48 1.50 1.47 1.47 1.56 1.61 1.59 1.71 1.75 1.80 1.85 1.90 1.79 1.71 1.65
1.48 1.49 1.53 1.47 1.44 1.40 1.29 1.37 1.38 1.49 1.58 1.48 1.30 1.14 1.15 1.16 1.25 1.41 1.42 1.27 1.28 1.22 1.08 1.26 1.24 1.36 1.49 1.47 1.49 1.52 1.47 1.56 1.63 1.60 1.66 1.74 1.75 1.79 1.83 1.89 1.80 1.67 1.65
1.42 1.41 1.54 1.52 1.46 1.38 1.27 1.26 1.30 1.32 1.41 1.43 1.39 1.26 1.23 1.27 1.20 1.36 1.46 1.45 1.30 1.23 1.03 1.11 1.26 1.34 1.32 1.29 1.29 1.44 1.62 1.61 1.63 1.72 1.73 1.73 1.72 1.79 1.85 1.87 1.78 1.67 1.65
1.31 1.49 1.45 1.48 1.46 1.39 1.31 1.19 1.19 1.23 1.32 1.40 1.42 1.39 1.42 1.45 1.34 1.34 1.42 1.42 1.41 1.43 1.26 1.08 1.19 1.20 1.33 1.40 1.44 1.51 1.57 1.68 1.74 1.77 1.75 1.68 1.71 1.78 1.80 1.89 1.84 1.75 1.72
1.17 1.34 1.52 1.43 1.39 1.34 1.25 1.18 1.18 1.16 1.19 1.28 1.38 1.42 1.33 1.38 1.37 1.37 1.35 1.35 1.38 1.40 1.38 1.23 1.15 1.31 1.28 1.32 1.45 1.53 1.54 1.59 1.67 1.66 1.63 1.64 1.58 1.74 2.02 2.05 1.86 1.63 1.56
1.09 1.15 1.29 1.33 1.30 1.26 1.24 1.18 1.17 1.13 1.11 1.17 1.26 1.32 1.34 1.36 1.34 1.33 1.32 1.31 1.30 1.25 1.24 1.18 1.12 1.12 1.26 1.41 1.44 1.31 1.17 1.27 1.32 1.38 1.42 1.66 1.93 2.06 2.05 2.04 1.82 1.67 1.70
1.04 1.14 1.14 1.28 1.27 1.25 1.22 1.17 1.17 1.17 1.13 1.11 1.11 1.18 1.27 1.31 1.33 1.37 1.35 1.33 1.36 1.29 1.24 1.18 1.16 1.24 1.23 1.22 1.12 1.15 1.16 1.22 1.30 1.41 1.62 1.88 1.95 2.00 2.02 1.92 1.82 1.71 1.63
1.14 1.07 1.12 1.13 1.20 1.23 1.21 1.20 1.18 1.18 1.23 1.18 1.10 1.11 1.14 1.20 1.21 1.25 1.33 1.40 1.40 1.27 1.19 1.17 1.12 1.07 1.01 1.03 1.10 1.14 1.17 1.13 1.09 1.58 1.72 1.72 1.97 1.94 1.95 1.80 1.73 1.60 1.41
1.19 1.20 1.16 1.15 1.11 1.16 1.20 1.17 1.17 1.18 1.20 1.21 1.17 1.17 1.15 1.18 1.20 1.21 1.23 1.24 1.24 1.27 1.27 1.20 1.09 1.03 1.08 1.17 1.30 1.21 1.20 1.23 1.29 1.65 1.77 1.53 1.88 1.82 1.89 1.54 1.44 1.43 1.31
1.24 1.19 1.24 1.24 1.16 1.14 1.20 1.21 1.19 1.20 1.22 1.23 1.22 1.23 1.19 1.13 1.13 1.13 1.09 1.13 1.17 1.20 1.20 1.24 1.26 1.26 1.38 1.43 1.43 1.36 1.35 1.45 1.68 1.79 1.81 1.49 1.81 1.76 1.62 1.39 1.42 1.37 1.28
1.24 1.21 1.28 1.27 1.24 1.22 1.25 1.26 1.25 1.21 1.19 1.20 1.23 1.26 1.24 1.17 1.14 1.18 1.11 1.01 1.03 1.11 1.30 1.36 1.44 1.53 1.51 1.45 1.44 1.44 1.44 1.57 1.41 1.51 1.81 1.75 1.75 1.61 1.34 1.29 1.36 1.30 1.25
1.40 1.38 1.26 1.32 1.32 1.27 1.32 1.29 1.27 1.21 1.15 1.15 1.23 1.25 1.27 1.24 1.20 1.19 1.14 1.07 0.94 0.89 0.98 1.12 1.26 1.35 1.43 1.47 1.56 1.75 1.78 1.55 1.53 1.48 1.77 1.67 1.65 1.49 1.12 1.34 1.28 1.25 1.20

GFSMA_prec_pwat_069.txt.gz
Precipitable_Water
1.55 1.42 1.55 1.70 1.67 1.76 1.75 1.70 1.68 1.75 1.67 1.66 1.63 1.56 1.49 1.37 1.31 1.22 1.29 1.30 1.38 1.35 1.33 1.35 1.35 1.35 1.31 1.27 1.26 1.18 1.17 1.20 1.24 1.33 1.38 1.42 1.49 1.48 1.52 1.56 1.53 1.47 1.40
1.69 1.69 1.74 1.65 1.67 1.52 1.59 1.61 1.61 1.63 1.65 1.67 1.60 1.58 1.53 1.50 1.48 1.50 1.45 1.47 1.49 1.49 1.46 1.42 1.34 1.37 1.29 1.26 1.29 1.29 1.27 1.34 1.37 1.42 1.47 1.53 1.55 1.52 1.50 1.46 1.39 1.34 1.29
1.73 1.71 1.63 1.56 1.53 1.55 1.52 1.57 1.57 1.64 1.70 1.64 1.55 1.59 1.61 1.55 1.53 1.55 1.54 1.56 1.61 1.58 1.47 1.40 1.38 1.33 1.28 1.23 1.29 1.33 1.38 1.42 1.47 1.50 1.51 1.50 1.48 1.46 1.45 1.39 1.30 1.26 1.19
1.82 1.70 1.57 1.62 1.65 1.57 1.51 1.44 1.43 1.53 1.61 1.56 1.51 1.51 1.48 1.46 1.43 1.39 1.41 1.38 1.39 1.41 1.45 1.39 1.32 1.20 1.17 1.25 1.31 1.35 1.39 1.42 1.43 1.45 1.44 1.43 1.42 1.39 1.36 1.33 1.30 1.29 1.16
1.83 1.82 1.73 1.65 1.61 1.51 1.43 1.39 1.41 1.42 1.43 1.42 1.44 1.47 1.42 1.42 1.36 1.34 1.33 1.34 1.36 1.31 1.30 1.31 1.28 1.25 1.25 1.25 1.27 1.31 1.34 1.37 1.37 1.38 1.38 1.35 1.32 1.28 1.27 1.30 1.30 1.26 1.17
1.75 1.81 1.79 1.67 1.63 1.50 1.42 1.43 1.36 1.40 1.42 1.37 1.33 1.36 1.36 1.40 1.41 1.34 1.35 1.38 1.39 1.41 1.33 1.25 1.27 1.34 1.33 1.34 1.31 1.25 1.26 1.30 1.34 1.34 1.33 1.30 1.27 1.23 1.24 1.28 1.26 1.22 1.15
1.78 1.56 1.67 1.68 1.56 1.39 1.36 1.34 1.32 1.31 1.30 1.32 1.20 1.18 1.24 1.32 1.31 1.34 1.40 1.38 1.36 1.38 1.39 1.39 1.37 1.32 1.33 1.35 1.35 1.36 1.28 1.26 1.28 1.31 1.30 1.27 1.24 1.22 1.23 1.26 1.25 1.20 1.12
1.80 1.62 1.65 1.74 1.64 1.53 1.41 1.29 1.29 1.29 1.29 1.31 1.15 1.13 0.91 1.01 1.16 1.26 1.31 1.27 1.26 1.30 1.31 1.39 1.44 1.40 1.34 1.35 1.39 1.40 1.38 1.32 1.29 1.30 1.30 1.29 1.27 1.27 1.25 1.25 1.21 1.18 1.15
1.73 1.69 1.64 1.71 1.66 1.52 1.40 1.32 1.29 1.29 1.13 1.25 1.34 1.21 0.95 0.85 1.02 1.16 1.16 1.18 1.20 1.21 1.26 1.34 1.38 1.42 1.43 1.40 1.46 1.49 1.50 1.49 1.40 1.36 1.36 1.38 1.42 1.43 1.38 1.33 1.30 1.23 1.19
1.73 1.82 1.68 1.63 1.60 1.48 1.40 1.43 1.40 1.32 1.23 1.11 1.22 1.36 1.30 1.17 0.94 0.86 1.07 1.11 1.16 1.11 1.19 1.29 1.33 1.39 1.48 1.48 1.45 1.47 1.47 1.47 1.51 1.51 1.58 1.67 1.74 1.76 1.68 1.56 1.45 1.37 1.31
1.68 1.72 1.76 1.62 1.56 1.51 1.40 1.43 1.43 1.39 1.32 1.19 1.20 1.27 1.18 1.14 1.18 1.03 0.88 0.98 1.11 1.20 1.26 1.30 1.37 1.37 1.38 1.41 1.41 1.44 1.49 1.54 1.59 1.68 1.79 1.77 1.79 1.88 1.90 1.87 1.76 1.64 1.54
1.54 1.61 1.76 1.71 1.66 1.56 1.51 1.36 1.40 1.41 1.39 1.33 1.35 1.31 1.15 1.07 1.10 1.12 1.02 1.06 1.10 1.20 1.28 1.32 1.32 1.29 1.34 1.41 1.47 1.50 1.50 1.54 1.60 1.70 1.75 1.76 1.81 1.89 1.92 1.94 1.90 1.77 1.69
1.47 1.50 1.57 1.62 1.62 1.59 1.56 1.55 1.44 1.43 1.41 1.39 1.36 1.32 1.32 1.27 1.29 1.25 1.18 1.13 1.11 1.20 1.21 1.30 1.29 1.30 1.35 1.40 1.45 1.47 1.47 1.53 1.58 1.64 1.72 1.75 1.78 1.82 1.86 1.87 1.87 1.83 1.75
1.60 1.65 1.60 1.57 1.58 1.58 1.58 1.62 1.47 1.37 1.43 1.37 1.37 1.42 1.35 1.35 1.38 1.36 1.21 1.14 1.04 1.11 1.18 1.21 1.33 1.30 1.40 1.43 1.45 1.45 1.43 1.53 1.53 1.59 1.70 1.75 1.77 1.76 1.73 1.79 1.85 1.85 1.70
1.69 1.63 1.65 1.56 1.58 1.58 1.52 1.52 1.50 1.38 1.36 1.38 1.37 1.39 1.36 1.39 1.38 1.37 1.41 1.26 1.12 0.93 0.98 1.17 1.14 1.33 1.41 1.43 1.43 1.43 1.46 1.52 1.59 1.64 1.76 1.77 1.77 1.71 1.70 1.81 1.76 1.81 1.85
1.64 1.55 1.58 1.61 1.58 1.61 1.65 1.48 1.52 1.49 1.35 1.29 1.34 1.31 1.32 1.37 1.37 1.36 1.37 1.39 1.29 1.12 0.96 1.18 1.22 1.30 1.39 1.40 1.42 1.48 1.52 1.57 1.64 1.64 1.70 1.64 1.53 1.52 1.70 1.92 2.01 1.99 1.82
1.52 1.52 1.53 1.52 1.52 1.52 1.60 1.53 1.42 1.44 1.39 1.28 1.26 1.25 1.24 1.32 1.28 1.35 1.37 1.36 1.34 1.29 1.06 1.16 1.27 1.36 1.30 1.32 1.35 1.46 1.47 1.64 1.56 1.56 1.52 1.43 1.52 1.86 2.00 2.03 2.04 1.93 1.76
1.49 1.56 1.52 1.49 1.53 1.53 1.53 1.47 1.39 1.34 1.35 1.32 1.29 1.22 1.17 1.25 1.18 1.29 1.29 1.26 1.33 1.37 1.25 1.07 1.20 1.25 1.27 1.33 1.33 1.29 1.43 1.53 1.51 1.51 1.44 1.51 1.71 1.98 2.02 2.02 1.98 1.78 1.62
1.35 1.46 1.49 1.47 1.44 1.46 1.47 1.42 1.38 1.31 1.23 1.29 1.35 1.37 1.30 1.25 1.16 1.24 1.26 1.28 1.33 1.39 1.39 1.27 1.17 1.27 1.26 1.30 1.20 1.34 1.42 1.25 1.28 1.45 1.43 1.56 1.88 1.95 2.03 2.05 1.88 1.62 1.42
1.25 1.32 1.39 1.44 1.46 1.44 1.44 1.42 1.36 1.30 1.21 1.20 1.24 1.31 1.36 1.33 1.29 1.27 1.27 1.30 1.35 1.28 1.27 1.22 1.16 1.14 1.18 1.25 1.29 1.15 1.01 1.14 1.18 1.39 1.42 1.73 1.89 1.90 1.96 1.96 1.66 1.37 1.28
1.07 1.20 1.30 1.36 1.44 1.46 1.46 1.41 1.35 1.27 1.23 1.17 1.20 1.20 1.23 1.33 1.38 1.41 1.36 1.31 1.30 1.28 1.25 1.18 1.11 1.11 1.06 1.03 1.02 1.14 1.07 1.17 1.18 1.42 1.50 1.76 1.77 1.87 1.94 1.88 1.47 1.33 1.21
1.00 0.97 1.06 1.18 1.24 1.33 1.39 1.41 1.39 1.33 1.29 1.20 1.10 1.14 1.19 1.16 1.17 1.24 1.32 1.39 1.39 1.29 1.20 1.16 1.11 1.03 1.03 1.06 1.10 1.10 1.07 1.09 1.02 1.50 1.57 1.66 1.79 1.80 1.93 1.75 1.40 1.31 1.17
1.34 1.21 1.01 0.96 0.99 1.11 1.22 1.26 1.32 1.34 1.29 1.22 1.17 1.14 1.14 1.18 1.16 1.13 1.15 1.19 1.24 1.29 1.32 1.25 1.10 1.08 1.04 1.09 1.12 1.07 1.11 1.20 1.20 1.50 1.71 1.54 1.75 1.72 1.91 1.75 1.44 1.29 1.16
1.35 1.29 1.28 1.23 1.06 0.98 0.99 1.09 1.16 1.23 1.27 1.26 1.24 1.19 1.15 1.15 1.20 1.20 1.17 1.12 1.13 1.16 1.16 1.18 1.16 1.10 1.19 1.19 1.26 1.28 1.30 1.36 1.47 1.69 1.90 1.48 1.76 1.80 1.88 1.67 1.42 1.30 1.16
1.49 1.38 1.31 1.28 1.24 1.19 1.14 1.05 1.03 1.05 1.10 1.12 1.16 1.16 1.18 1.15 1.16 1.23 1.23 1.15 1.14 1.14 1.24 1.22 1.20 1.15 1.18 1.18 1.27 1.30 1.21 1.28 1.35 1.58 1.80 1.63 1.71 1.82 1.79 1.60 1.44 1.32 1.14
1.68 1.63 1.46 1.35 1.24 1.20 1.28 1.24 1.21 1.15 1.05 1.07 1.11 1.13 1.12 1.11 1.11 1.17 1.21 1.22 1.12 1.06 1.15 1.13 1.15 1.18 1.22 1.23 1.31 1.38 1.43 1.41 1.50 1.49 1.73 1.66 1.73 1.75 1.47 1.57 1.42 1.28 1.13

GFSMA_prec_pwat_072.txt.gz
Precipitable_Water
1.34 1.58 1.64 1.75 1.81 1.86 1.78 1.66 1.69 1.70 1.67 1.64 1.61 1.55 1.51 1.40 1.28 1.26 1.33 1.36 1.40 1.37 1.38 1.38 1.36 1.35 1.31 1.28 1.28 1.24 1.31 1.36 1.38 1.41 1.45 1.49 1.55 1.50 1.48 1.46 1.36 1.31 1.27
1.57 1.61 1.68 1.64 1.59 1.65 1.77 1.73 1.70 1.69 1.69 1.64 1.58 1.54 1.55 1.47 1.46 1.42 1.48 1.53 1.53 1.53 1.48 1.45 1.39 1.39 1.32 1.27 1.36 1.47 1.48 1.47 1.47 1.52 1.55 1.54 1.48 1.44 1.41 1.39 1.30 1.24 1.14
1.68 1.63 1.65 1.59 1.52 1.58 1.58 1.65 1.72 1.75 1.70 1.59 1.55 1.59 1.60 1.56 1.49 1.52 1.52 1.55 1.56 1.50 1.45 1.41 1.34 1.27 1.26 1.34 1.39 1.44 1.45 1.49 1.53 1.52 1.48 1.42 1.40 1.38 1.38 1.37 1.31 1.24 1.10
1.81 1.71 1.61 1.59 1.61 1.56 1.50 1.52 1.57 1.63 1.60 1.53 1.52 1.53 1.51 1.46 1.43 1.41 1.42 1.39 1.39 1.41 1.40 1.38 1.25 1.25 1.28 1.30 1.34 1.40 1.47 1.48 1.46 1.42 1.39 1.38 1.35 1.33 1.30 1.32 1.26 1.20 1.10
1.87 1.82 1.63 1.58 1.59 1.55 1.46 1.39 1.50 1.57 1.55 1.49 1.48 1.46 1.43 1.39 1.36 1.36 1.33 1.36 1.36 1.31 1.26 1.27 1.34 1.39 1.38 1.38 1.35 1.35 1.36 1.35 1.36 1.39 1.36 1.34 1.31 1.29 1.28 1.27 1.24 1.17 1.11
1.80 1.88 1.74 1.67 1.62 1.46 1.43 1.37 1.39 1.47 1.44 1.41 1.41 1.36 1.39 1.37 1.35 1.35 1.34 1.38 1.39 1.35 1.30 1.32 1.36 1.37 1.39 1.39 1.37 1.35 1.32 1.30 1.32 1.33 1.34 1.35 1.33 1.30 1.26 1.27 1.25 1.18 1.15
1.76 1.71 1.74 1.69 1.59 1.43 1.42 1.44 1.36 1.36 1.35 1.33 1.23 1.15 1.22 1.26 1.25 1.33 1.39 1.38 1.36 1.37 1.44 1.46 1.43 1.37 1.34 1.37 1.40 1.41 1.41 1.40 1.35 1.34 1.38 1.44 1.44 1.36 1.29 1.29 1.29 1.24 1.21
1.87 1.61 1.65 1.67 1.61 1.40 1.37 1.35 1.32 1.27 1.25 1.28 1.13 1.11 0.91 0.97 1.10 1.21 1.25 1.28 1.25 1.32 1.36 1.41 1.43 1.43 1.39 1.39 1.41 1.47 1.50 1.48 1.48 1.44 1.51 1.59 1.63 1.58 1.48 1.37 1.33 1.29 1.28
1.81 1.73 1.74 1.74 1.61 1.51 1.37 1.28 1.31 1.31 1.16 1.25 1.33 1.18 0.99 0.89 1.03 1.14 1.13 1.14 1.14 1.20 1.28 1.31 1.37 1.40 1.48 1.49 1.47 1.46 1.48 1.56 1.62 1.70 1.77 1.79 1.81 1.83 1.79 1.67 1.55 1.46 1.41
1.77 1.80 1.75 1.69 1.63 1.54 1.39 1.35 1.36 1.36 1.26 1.15 1.26 1.35 1.33 1.23 0.99 0.91 1.05 1.06 1.11 1.13 1.19 1.26 1.32 1.41 1.44 1.44 1.46 1.49 1.53 1.57 1.67 1.76 1.85 1.85 1.87 1.89 1.87 1.86 1.81 1.72 1.62
1.79 1.86 1.75 1.65 1.58 1.59 1.47 1.44 1.40 1.34 1.34 1.21 1.18 1.27 1.24 1.22 1.23 1.07 0.91 0.94 1.05 1.17 1.25 1.31 1.36 1.36 1.38 1.41 1.45 1.49 1.49 1.54 1.61 1.72 1.74 1.82 1.86 1.83 1.84 1.87 1.87 1.86 1.79
1.61 1.67 1.76 1.68 1.62 1.60 1.53 1.41 1.43 1.40 1.39 1.38 1.30 1.33 1.21 1.13 1.13 1.13 1.02 1.00 1.06 1.18 1.29 1.34 1.29 1.31 1.38 1.41 1.45 1.44 1.46 1.52 1.55 1.62 1.71 1.77 1.81 1.79 1.76 1.75 1.77 1.83 1.80
1.45 1.50 1.59 1.71 1.68 1.67 1.64 1.60 1.42 1.37 1.40 1.39 1.34 1.34 1.31 1.32 1.33 1.27 1.16 1.11 1.12 1.23 1.28 1.36 1.31 1.32 1.38 1.42 1.45 1.44 1.42 1.49 1.53 1.59 1.75 1.81 1.80 1.78 1.79 1.70 1.70 1.85 1.80
1.46 1.59 1.61 1.57 1.67 1.68 1.65 1.61 1.54 1.49 1.47 1.43 1.41 1.40 1.35 1.39 1.41 1.38 1.26 1.16 1.06 1.11 1.18 1.20 1.33 1.33 1.41 1.44 1.47 1.44 1.43 1.49 1.54 1.65 1.73 1.72 1.60 1.54 1.50 1.57 1.73 1.85 1.88
1.50 1.69 1.72 1.63 1.59 1.69 1.65 1.55 1.54 1.50 1.49 1.46 1.40 1.41 1.38 1.43 1.44 1.39 1.42 1.37 1.17 0.97 0.97 1.15 1.18 1.35 1.42 1.46 1.49 1.49 1.47 1.49 1.55 1.65 1.69 1.62 1.50 1.46 1.65 1.97 2.00 1.99 1.84
1.60 1.62 1.64 1.64 1.61 1.65 1.65 1.60 1.47 1.51 1.45 1.40 1.44 1.40 1.39 1.41 1.43 1.41 1.39 1.42 1.40 1.22 1.01 1.18 1.22 1.32 1.43 1.49 1.53 1.48 1.45 1.48 1.60 1.68 1.61 1.48 1.44 1.59 1.89 1.99 2.02 1.93 1.79
1.54 1.58 1.56 1.57 1.63 1.64 1.66 1.65 1.57 1.46 1.37 1.36 1.32 1.30 1.33 1.39 1.39 1.40 1.42 1.44 1.35 1.31 1.14 1.22 1.32 1.39 1.37 1.42 1.40 1.41 1.42 1.50 1.63 1.48 1.48 1.45 1.47 1.71 1.90 1.99 2.02 1.85 1.64
1.49 1.49 1.51 1.46 1.47 1.54 1.65 1.59 1.53 1.52 1.37 1.27 1.31 1.24 1.21 1.32 1.32 1.39 1.37 1.34 1.37 1.37 1.25 1.10 1.23 1.28 1.31 1.37 1.35 1.29 1.35 1.49 1.40 1.29 1.45 1.40 1.53 1.85 1.87 1.94 1.88 1.72 1.44
1.31 1.40 1.44 1.43 1.45 1.48 1.53 1.55 1.53 1.48 1.42 1.31 1.28 1.30 1.30 1.29 1.21 1.25 1.26 1.28 1.34 1.38 1.40 1.27 1.22 1.35 1.33 1.33 1.22 1.27 1.26 1.27 1.32 1.38 1.40 1.44 1.73 1.92 1.85 1.89 1.84 1.55 1.28
1.16 1.22 1.29 1.36 1.42 1.45 1.47 1.48 1.46 1.46 1.41 1.34 1.28 1.25 1.28 1.32 1.31 1.32 1.30 1.29 1.31 1.29 1.34 1.28 1.22 1.21 1.22 1.27 1.28 1.14 1.06 1.24 1.12 1.31 1.35 1.51 1.87 1.95 1.85 1.92 1.80 1.44 1.23
1.09 1.11 1.18 1.23 1.31 1.34 1.34 1.34 1.36 1.35 1.38 1.35 1.34 1.32 1.28 1.27 1.31 1.38 1.37 1.32 1.36 1.32 1.28 1.20 1.14 1.14 1.11 1.10 1.08 1.19 1.16 1.17 1.10 1.28 1.33 1.54 1.84 1.89 1.90 1.89 1.79 1.43 1.24
1.30 1.15 1.00 1.07 1.11 1.22 1.27 1.29 1.31 1.27 1.28 1.28 1.23 1.29 1.32 1.32 1.30 1.28 1.24 1.27 1.33 1.23 1.18 1.17 1.13 1.05 1.06 1.11 1.15 1.14 1.12 1.07 0.89 1.29 1.38 1.46 1.86 1.74 1.88 1.88 1.76 1.55 1.27
1.41 1.36 1.26 1.07 0.96 1.03 1.11 1.16 1.20 1.23 1.20 1.19 1.18 1.19 1.18 1.23 1.25 1.25 1.25 1.25 1.23 1.24 1.25 1.20 1.06 1.05 1.03 1.12 1.15 1.10 1.08 1.09 1.06 1.22 1.44 1.49 1.78 1.65 1.82 1.86 1.73 1.45 1.33
1.45 1.42 1.41 1.38 1.30 1.17 1.06 1.02 1.05 1.10 1.12 1.10 1.10 1.10 1.11 1.13 1.18 1.21 1.18 1.14 1.17 1.20 1.21 1.22 1.18 1.13 1.15 1.18 1.18 1.19 1.13 1.12 1.23 1.27 1.60 1.44 1.69 1.58 1.73 1.83 1.71 1.43 1.32
1.53 1.48 1.47 1.43 1.37 1.34 1.35 1.31 1.20 1.03 0.97 0.97 1.05 1.08 1.05 1.03 1.07 1.11 1.15 1.10 1.10 1.11 1.26 1.26 1.27 1.25 1.20 1.21 1.22 1.20 1.04 1.04 0.99 1.16 1.64 1.66 1.64 1.64 1.80 1.73 1.70 1.52 1.35
1.64 1.59 1.54 1.50 1.44 1.37 1.39 1.36 1.38 1.36 1.17 1.00 0.98 0.99 0.98 0.98 1.01 1.05 1.04 1.03 0.98 0.98 1.16 1.20 1.23 1.25 1.28 1.25 1.25 1.24 1.20 1.04 1.08 1.16 1.61 1.62 1.64 1.72 1.50 1.72 1.70 1.59 1.36

GFSMA_prec_pwat_075.txt.gz
Precipitable_Water
1.55 1.66 1.76 1.82 1.84 1.83 1.68 1.66 1.70 1.66 1.65 1.62 1.59 1.55 1.50 1.35 1.29 1.37 1.44 1.39 1.43 1.41 1.41 1.38 1.34 1.34 1.28 1.34 1.43 1.46 1.50 1.53 1.50 1.48 1.47 1.45 1.45 1.42 1.38 1.35 1.25 1.22 1.12
1.63 1.71 1.67 1.71 1.73 1.78 1.76 1.72 1.69 1.68 1.66 1.61 1.57 1.56 1.51 1.44 1.44 1.46 1.52 1.58 1.50 1.53 1.47 1.47 1.42 1.34 1.41 1.43 1.46 1.51 1.54 1.49 1.47 1.47 1.47 1.39 1.39 1.39 1.35 1.30 1.24 1.24 1.16
1.62 1.67 1.63 1.65 1.56 1.66 1.75 1.77 1.73 1.76 1.64 1.61 1.56 1.60 1.56 1.53 1.51 1.51 1.52 1.55 1.53 1.46 1.43 1.38 1.28 1.33 1.36 1.40 1.43 1.47 1.47 1.46 1.45 1.39 1.36 1.36 1.38 1.36 1.31 1.28 1.25 1.23 1.16
1.73 1.66 1.69 1.59 1.58 1.56 1.57 1.65 1.71 1.69 1.59 1.54 1.52 1.52 1.51 1.50 1.44 1.42 1.41 1.42 1.40 1.40 1.35 1.28 1.35 1.38 1.39 1.38 1.39 1.40 1.39 1.38 1.37 1.37 1.38 1.39 1.37 1.33 1.28 1.26 1.26 1.22 1.17
1.85 1.75 1.67 1.59 1.60 1.58 1.51 1.47 1.61 1.66 1.55 1.51 1.48 1.47 1.44 1.40 1.36 1.34 1.37 1.39 1.36 1.30 1.31 1.36 1.40 1.42 1.44 1.41 1.38 1.36 1.35 1.35 1.36 1.39 1.45 1.45 1.39 1.34 1.28 1.28 1.27 1.24 1.21
1.87 1.86 1.67 1.61 1.62 1.53 1.43 1.44 1.52 1.57 1.51 1.46 1.40 1.35 1.37 1.34 1.32 1.33 1.38 1.37 1.34 1.35 1.44 1.47 1.47 1.45 1.38 1.37 1.41 1.42 1.42 1.39 1.41 1.45 1.50 1.52 1.50 1.44 1.35 1.30 1.30 1.29 1.28
1.78 1.87 1.76 1.69 1.66 1.47 1.45 1.42 1.44 1.44 1.37 1.39 1.22 1.16 1.20 1.20 1.20 1.25 1.34 1.33 1.31 1.43 1.51 1.53 1.50 1.46 1.44 1.41 1.44 1.48 1.49 1.51 1.58 1.63 1.67 1.70 1.73 1.70 1.62 1.54 1.45 1.40 1.37
1.81 1.69 1.68 1.67 1.64 1.44 1.42 1.45 1.39 1.31 1.26 1.28 1.17 1.15 0.95 1.02 1.13 1.17 1.19 1.19 1.26 1.37 1.40 1.45 1.48 1.50 1.50 1.53 1.52 1.50 1.53 1.61 1.71 1.82 1.89 1.86 1.82 1.80 1.78 1.74 1.67 1.60 1.54
1.81 1.73 1.76 1.76 1.62 1.49 1.38 1.35 1.36 1.36 1.20 1.31 1.32 1.19 0.99 0.92 1.07 1.16 1.13 1.11 1.19 1.26 1.33 1.39 1.42 1.51 1.54 1.53 1.53 1.56 1.58 1.62 1.71 1.82 1.89 1.87 1.84 1.82 1.81 1.79 1.79 1.77 1.66
1.80 1.82 1.73 1.73 1.65 1.55 1.45 1.36 1.40 1.37 1.31 1.20 1.27 1.33 1.32 1.24 1.00 0.93 1.11 1.08 1.15 1.18 1.27 1.35 1.40 1.46 1.47 1.48 1.52 1.56 1.54 1.59 1.66 1.79 1.83 1.81 1.81 1.81 1.78 1.76 1.76 1.76 1.76
1.80 1.84 1.84 1.72 1.61 1.56 1.54 1.48 1.41 1.38 1.36 1.23 1.20 1.24 1.25 1.25 1.26 1.09 0.92 0.99 1.11 1.20 1.30 1.37 1.40 1.39 1.44 1.51 1.52 1.51 1.49 1.52 1.61 1.70 1.81 1.87 1.86 1.86 1.83 1.83 1.82 1.78 1.80
1.72 1.75 1.75 1.73 1.61 1.61 1.51 1.51 1.51 1.46 1.43 1.40 1.32 1.28 1.23 1.16 1.17 1.18 1.06 1.05 1.07 1.22 1.37 1.43 1.40 1.41 1.46 1.50 1.52 1.49 1.47 1.52 1.64 1.69 1.79 1.80 1.73 1.66 1.60 1.56 1.69 1.87 1.85
1.55 1.58 1.64 1.76 1.67 1.67 1.64 1.63 1.48 1.42 1.42 1.41 1.43 1.35 1.34 1.34 1.37 1.34 1.19 1.15 1.14 1.28 1.33 1.42 1.40 1.45 1.49 1.53 1.53 1.49 1.50 1.50 1.54 1.62 1.70 1.67 1.64 1.54 1.51 1.69 2.01 2.01 1.93
1.55 1.62 1.63 1.68 1.76 1.70 1.67 1.64 1.57 1.55 1.50 1.42 1.44 1.46 1.39 1.39 1.45 1.42 1.31 1.21 1.11 1.16 1.24 1.27 1.44 1.41 1.48 1.53 1.54 1.54 1.50 1.46 1.52 1.53 1.63 1.63 1.58 1.44 1.57 1.86 2.04 1.99 1.88
1.61 1.57 1.65 1.66 1.65 1.70 1.67 1.62 1.52 1.53 1.54 1.48 1.45 1.43 1.40 1.42 1.48 1.45 1.41 1.39 1.24 1.04 1.08 1.22 1.21 1.41 1.48 1.53 1.57 1.55 1.48 1.41 1.43 1.54 1.52 1.52 1.48 1.48 1.61 1.89 2.06 2.02 1.82
1.62 1.59 1.64 1.68 1.69 1.67 1.68 1.63 1.54 1.48 1.47 1.47 1.44 1.40 1.40 1.41 1.44 1.45 1.40 1.39 1.38 1.25 1.05 1.28 1.28 1.38 1.48 1.51 1.55 1.53 1.47 1.44 1.46 1.46 1.39 1.41 1.49 1.49 1.72 1.91 1.95 1.93 1.77
1.60 1.56 1.67 1.65 1.61 1.64 1.66 1.64 1.62 1.55 1.40 1.41 1.41 1.37 1.35 1.41 1.36 1.38 1.41 1.41 1.38 1.33 1.12 1.18 1.32 1.40 1.38 1.42 1.45 1.46 1.43 1.41 1.41 1.35 1.36 1.37 1.47 1.54 1.83 1.86 1.85 1.81 1.59
1.55 1.53 1.57 1.63 1.58 1.64 1.70 1.66 1.61 1.58 1.52 1.38 1.33 1.32 1.26 1.34 1.33 1.38 1.38 1.36 1.34 1.37 1.23 1.10 1.24 1.29 1.30 1.38 1.41 1.36 1.32 1.34 1.37 1.33 1.30 1.30 1.46 1.64 1.87 1.81 1.83 1.74 1.45
1.40 1.53 1.52 1.51 1.51 1.47 1.53 1.60 1.59 1.61 1.56 1.47 1.40 1.31 1.30 1.28 1.23 1.30 1.34 1.33 1.32 1.32 1.31 1.21 1.15 1.32 1.32 1.40 1.31 1.31 1.31 1.32 1.35 1.29 1.30 1.33 1.48 1.69 1.86 1.81 1.78 1.70 1.44
1.23 1.33 1.40 1.44 1.47 1.48 1.48 1.51 1.55 1.51 1.51 1.49 1.42 1.34 1.26 1.27 1.31 1.35 1.37 1.36 1.35 1.31 1.32 1.27 1.22 1.25 1.30 1.36 1.34 1.18 1.13 1.22 1.20 1.26 1.26 1.32 1.49 1.74 1.84 1.78 1.77 1.68 1.58
1.39 1.25 1.25 1.31 1.40 1.43 1.44 1.43 1.42 1.42 1.39 1.37 1.44 1.41 1.37 1.28 1.21 1.27 1.30 1.33 1.36 1.33 1.33 1.28 1.20 1.21 1.19 1.17 1.11 1.17 1.11 1.16 1.18 1.24 1.22 1.13 1.41 1.78 1.88 1.75 1.77 1.73 1.54
1.50 1.47 1.36 1.22 1.17 1.28 1.33 1.30 1.33 1.30 1.31 1.29 1.25 1.33 1.37 1.36 1.33 1.29 1.26 1.27 1.27 1.19 1.12 1.11 1.08 1.05 1.08 1.15 1.17 1.15 1.08 1.02 0.88 1.22 1.20 1.10 1.40 1.71 1.89 1.75 1.76 1.73 1.52
1.46 1.44 1.42 1.42 1.31 1.16 1.14 1.22 1.26 1.27 1.25 1.24 1.22 1.20 1.21 1.26 1.26 1.28 1.27 1.25 1.23 1.22 1.23 1.17 1.03 1.03 1.01 1.12 1.17 1.09 1.06 1.06 0.97 1.05 1.16 1.08 1.36 1.65 1.87 1.63 1.67 1.71 1.49
1.49 1.45 1.42 1.43 1.38 1.35 1.28 1.11 1.08 1.15 1.22 1.19 1.18 1.18 1.18 1.15 1.16 1.15 1.16 1.17 1.19 1.19 1.20 1.20 1.17 1.15 1.16 1.22 1.22 1.19 1.13 1.09 1.13 1.17 1.27 1.01 1.33 1.59 1.84 1.72 1.66 1.65 1.55
1.54 1.50 1.50 1.47 1.43 1.39 1.39 1.36 1.34 1.25 1.11 1.08 1.11 1.11 1.11 1.11 1.11 1.06 1.04 1.01 1.05 1.08 1.21 1.21 1.20 1.22 1.22 1.24 1.29 1.28 1.09 1.01 0.90 0.99 1.22 1.18 1.32 1.58 1.80 1.70 1.68 1.67 1.62
1.68 1.63 1.56 1.55 1.50 1.43 1.47 1.44 1.43 1.41 1.33 1.27 1.22 1.14 1.07 0.98 1.00 1.00 1.01 0.97 0.89 0.89 1.01 1.04 1.12 1.18 1.25 1.28 1.32 1.32 1.24 1.01 0.96 0.91 1.23 1.12 1.28 1.52 1.46 1.72 1.86 1.71 1.65